Martinsburg, WV

9:36 PM EST on December 08, 2019 (GMT -0500)
Eastern W Va Regional-Shepherd

Weather History for KMRB - November, 2019

Change the Weather History Date:

Monday, November 18, 2019

  Actual Average Record
Temperature  
Mean Temperature 38 °F 44 °F  
Max Temperature 41 °F 53 °F 76 °F (1979)
Min Temperature 35 °F 34 °F 16 °F (1959)
Degree Days  
Heating Degree Days 27 22  
Month to date heating degree days 452 336  
Since 1 July heating degree days 725 782  
Cooling Degree Days 0 0  
Month to date cooling degree days 0 0  
Year to date cooling degree days 1282 895  
Moisture  
Dew Point 35 °F    
Average Humidity 92    
Maximum Humidity 100    
Minimum Humidity 76    
Precipitation  
Precipitation 0.01 in 0.11 in 1.80 in (1929)
Month to date precipitation 0.18 1.83  
Year to date precipitation 39.94 34.69  
Sea Level Pressure  
Sea Level Pressure 29.87 in    
Wind  
Wind Speed 2 mph ()    
Max Wind Speed 7 mph    
Max Gust Speed 9 mph    
Visibility 4.1 miles    
Events Snow    
T = Trace of Precipitation, MM = Missing Value Source: Averaged Metar Reports

Daily Weather History Graph

Daily Weather History Graph

Search for Another Location

Airport or City:

Astronomy

Nov. 18, 2019 Rise Set
Actual Time 6:58 AM EST 4:54 PM EST
Civil Twilight 6:29 AM EST 5:23 PM EST
Nautical Twilight 5:57 AM EST 5:56 PM EST
Astronomical Twilight 5:25 AM EST 6:28 PM EST
Moon 10:37 PM EST (11/18) 12:28 PM EST (11/18)
Length of Visible Light 10h 53m
Length of Day
9h 56m
Waning Gibbous, 63% of the Moon is Illuminated
Nov 18
Waning Gibbous
Nov 19
Last Quarter
Nov 26
New
Dec 4
First Quarter
Dec 12
Full

Hourly Weather History & Observations

Time (EST) Temp. Windchill Dew Point Humidity Pressure Visibility Wind Dir Wind Speed Gust Speed Precip Events Conditions
12:06 AM 37.0 °F 33.3 °F 30.9 °F 79% 29.99 in 8.0 mi NNE 4.6 mph - N/A   Overcast
12:30 AM 37.0 °F 34.5 °F 30.9 °F 79% 29.97 in 10.0 mi NNE 3.5 mph - N/A   Overcast
12:40 AM 36.0 °F - 32.0 °F 86% 29.97 in 9.0 mi Calm Calm - N/A   Overcast
12:53 AM 36.0 °F - 33.1 °F 89% 29.98 in 3.0 mi Calm Calm - N/A   Overcast
1:50 AM 35.6 °F 32.8 °F 33.8 °F 93% 29.95 in 3.0 mi North 3.5 mph - N/A   Overcast
1:53 AM 35.1 °F 32.2 °F 33.1 °F 92% 29.96 in 3.0 mi North 3.5 mph - N/A   Overcast
2:09 AM 35.1 °F 32.2 °F 34.0 °F 96% 29.95 in 1.8 mi North 3.5 mph - 0.00 in Snow Light Snow
2:53 AM 35.1 °F 32.2 °F 34.0 °F 96% 29.96 in 1.5 mi North 3.5 mph - 0.01 in   Overcast
3:02 AM 35.1 °F 30.1 °F 34.0 °F 96% 29.94 in 2.0 mi NNE 5.8 mph - N/A   Overcast
3:16 AM 35.1 °F 32.2 °F 34.0 °F 96% 29.93 in 1.8 mi NE 3.5 mph - N/A   Overcast
3:31 AM 35.1 °F 31.0 °F 34.0 °F 96% 29.93 in 1.8 mi NNE 4.6 mph - N/A   Overcast
3:43 AM 35.1 °F 30.1 °F 34.0 °F 96% 29.92 in 2.5 mi NNE 5.8 mph - N/A   Overcast
3:53 AM 35.1 °F 31.0 °F 34.0 °F 96% 29.93 in 2.5 mi NE 4.6 mph - N/A   Overcast
4:06 AM 35.1 °F 30.1 °F 34.0 °F 96% 29.91 in 3.0 mi NNE 5.8 mph - N/A   Overcast
4:35 AM 35.1 °F 32.2 °F 34.0 °F 96% 29.92 in 2.5 mi NNE 3.5 mph - N/A   Overcast
4:53 AM 35.1 °F 31.0 °F 34.0 °F 96% 29.93 in 2.5 mi NNE 4.6 mph - N/A   Overcast
5:10 AM 35.1 °F 31.0 °F 34.0 °F 96% 29.91 in 1.5 mi NNE 4.6 mph - N/A   Overcast
5:53 AM 35.1 °F 31.0 °F 34.0 °F 96% 29.91 in 2.0 mi North 4.6 mph - N/A   Overcast
6:53 AM 35.1 °F 31.0 °F 34.0 °F 96% 29.91 in 3.0 mi North 4.6 mph - N/A   Overcast
7:18 AM 35.1 °F 32.2 °F 34.0 °F 96% 29.89 in 2.5 mi North 3.5 mph - N/A   Overcast
7:53 AM 35.1 °F 32.2 °F 34.0 °F 96% 29.91 in 1.2 mi NE 3.5 mph - N/A   Overcast
8:15 AM 36.0 °F 33.3 °F 34.0 °F 93% 29.90 in 2.0 mi NE 3.5 mph - N/A   Overcast
8:33 AM 36.0 °F 32.1 °F 35.1 °F 97% 29.89 in 1.8 mi East 4.6 mph - N/A   Overcast
8:53 AM 36.0 °F - 35.1 °F 97% 29.91 in 1.2 mi Calm Calm - N/A   Overcast
9:53 AM 37.0 °F 34.5 °F 35.1 °F 93% 29.89 in 1.5 mi East 3.5 mph - N/A   Overcast
10:11 AM 37.0 °F - 35.1 °F 93% 29.87 in 2.0 mi Calm Calm - N/A   Overcast
10:24 AM 37.0 °F - 35.1 °F 93% 29.87 in 1.5 mi Calm Calm - N/A   Overcast
10:33 AM 37.0 °F - 35.1 °F 93% 29.87 in 1.5 mi Calm Calm - N/A   Overcast
10:53 AM 37.0 °F 34.5 °F 35.1 °F 93% 29.87 in 1.5 mi NE 3.5 mph - N/A   Overcast
11:27 AM 37.9 °F - 36.0 °F 93% 29.84 in 1.5 mi Calm Calm - N/A   Overcast
11:42 AM 37.9 °F - 36.0 °F 93% 29.83 in 2.0 mi Calm Calm - N/A   Overcast
11:53 AM 37.9 °F - 36.0 °F 93% 29.84 in 2.0 mi Calm Calm - N/A   Overcast
12:14 PM 37.9 °F - 36.0 °F 93% 29.81 in 3.0 mi Calm Calm - N/A   Overcast
12:53 PM 39.0 °F - 36.0 °F 89% 29.79 in 6.0 mi Calm Calm - N/A   Overcast
1:53 PM 39.9 °F - 36.0 °F 86% 29.77 in 10.0 mi Calm Calm - N/A   Overcast
2:53 PM 39.9 °F 36.7 °F 36.0 °F 86% 29.74 in 9.0 mi North 4.6 mph - N/A   Overcast
3:53 PM 39.9 °F - 36.0 °F 86% 29.76 in 10.0 mi Calm Calm - N/A   Overcast
4:53 PM 39.9 °F - 36.0 °F 86% 29.77 in 10.0 mi Calm Calm - N/A   Overcast
5:53 PM 39.9 °F - 36.0 °F 86% 29.77 in 10.0 mi Calm Calm - N/A   Overcast
6:09 PM 39.0 °F - 36.0 °F 89% 29.76 in 10.0 mi Calm Calm - N/A   Scattered Clouds
6:53 PM 37.9 °F - 35.1 °F 89% 29.77 in 7.0 mi Calm Calm - N/A   Clear
7:53 PM 37.9 °F - 36.0 °F 93% 29.75 in 8.0 mi Calm Calm - N/A   Overcast
8:53 PM 36.0 °F 33.3 °F 35.1 °F 97% 29.76 in 5.0 mi SSW 3.5 mph - N/A   Overcast
9:53 PM 37.0 °F - 35.1 °F 93% 29.75 in 5.0 mi Calm Calm - N/A   Overcast
10:53 PM 37.0 °F - 36.0 °F 96% 29.75 in 5.0 mi Calm Calm - N/A   Overcast
11:53 PM 37.0 °F - 35.1 °F 93% 29.76 in 4.0 mi Calm Calm - N/A   Overcast